Voltar ao catálogo

FENGYUN 1C DEB

AtivoPO
NORAD 36147·DEBRIS·🇨🇳 China

Lançado May 10, 1999 de Taiyuan Satellite Launch Center

Loading…

Próximas Passagens (próximas 24 horas)

TLE

EnvelhecendoSource: Space-Track

Época: Sep 9, 2026, 07:59 UTC

1 36147U 99025DRU 26252.33319608  .00000754  00000-0  72545-3 0  9998
2 36147  98.5041 286.0686 0437009 287.3891  67.9915 13.47212007636400

Acompanhe FENGYUN 1C DEB em tempo real com AllMySat

Download on the App Store